Year,Month,Day,Hour,Minute,Value (Times are PST for temperature in C)
2024,01,30,00,00,12.30
2024,01,30,00,01,12.20
2024,01,30,00,02,12.20
2024,01,30,00,03,12.20
2024,01,30,00,04,12.20
2024,01,30,00,05,12.20
2024,01,30,00,06,12.20
2024,01,30,00,07,12.20
2024,01,30,00,08,12.20
2024,01,30,00,09,12.10
2024,01,30,00,10,12.10
2024,01,30,00,11,12.10
2024,01,30,00,12,12.00
2024,01,30,00,13,12.00
2024,01,30,00,14,12.00
2024,01,30,00,15,12.00
2024,01,30,00,16,11.90
2024,01,30,00,17,11.90
2024,01,30,00,18,11.90
2024,01,30,00,19,11.80
2024,01,30,00,20,11.80
2024,01,30,00,21,11.80
2024,01,30,00,22,11.80
2024,01,30,00,23,11.80
2024,01,30,00,24,11.70
2024,01,30,00,25,11.70
2024,01,30,00,26,11.60
2024,01,30,00,27,11.60
2024,01,30,00,28,11.60
2024,01,30,00,29,11.60
2024,01,30,00,30,11.60
2024,01,30,00,31,11.60
2024,01,30,00,32,11.60
2024,01,30,00,33,11.60
2024,01,30,00,34,11.60
2024,01,30,00,35,11.60
2024,01,30,00,36,11.60
2024,01,30,00,37,11.50
2024,01,30,00,38,11.40
2024,01,30,00,39,11.40
2024,01,30,00,40,11.40
2024,01,30,00,41,11.40
2024,01,30,00,42,11.40
2024,01,30,00,43,11.40
2024,01,30,00,44,11.40
2024,01,30,00,45,11.40
2024,01,30,00,46,11.40
2024,01,30,00,47,11.40
2024,01,30,00,48,11.40
2024,01,30,00,49,11.40
2024,01,30,00,50,11.40
2024,01,30,00,51,11.40
2024,01,30,00,52,11.40
2024,01,30,00,53,11.40
2024,01,30,00,54,11.40
2024,01,30,00,55,11.40
2024,01,30,00,56,11.40
2024,01,30,00,57,11.40
2024,01,30,00,58,11.40
2024,01,30,00,59,11.40
2024,01,30,01,00,11.40
2024,01,30,01,01,11.40
2024,01,30,01,02,11.40
2024,01,30,01,03,11.40
2024,01,30,01,04,11.40
2024,01,30,01,05,11.40
2024,01,30,01,06,11.40
2024,01,30,01,07,11.40
2024,01,30,01,08,11.40
2024,01,30,01,09,11.40
2024,01,30,01,10,11.40
2024,01,30,01,11,11.40
2024,01,30,01,12,11.40
2024,01,30,01,13,11.40
2024,01,30,01,14,11.40
2024,01,30,01,15,11.40
2024,01,30,01,16,11.40
2024,01,30,01,17,11.40
2024,01,30,01,18,11.40
2024,01,30,01,19,11.40
2024,01,30,01,20,11.40
2024,01,30,01,21,11.40
2024,01,30,01,22,11.40
2024,01,30,01,23,11.40
2024,01,30,01,24,11.40
2024,01,30,01,25,11.40
2024,01,30,01,26,11.40
2024,01,30,01,27,11.40
2024,01,30,01,28,11.40
2024,01,30,01,29,11.50
2024,01,30,01,30,11.60
2024,01,30,01,31,11.60
2024,01,30,01,32,11.60
2024,01,30,01,33,11.60
2024,01,30,01,34,11.60
2024,01,30,01,35,11.60
2024,01,30,01,36,11.60
2024,01,30,01,37,11.60
2024,01,30,01,38,11.60
2024,01,30,01,39,11.60
2024,01,30,01,40,11.60
2024,01,30,01,41,11.60
2024,01,30,01,42,11.60
2024,01,30,01,43,11.60
2024,01,30,01,44,11.60
2024,01,30,01,45,11.60
2024,01,30,01,46,11.60
2024,01,30,01,47,11.60
2024,01,30,01,48,11.60
2024,01,30,01,49,11.60
2024,01,30,01,50,11.60
2024,01,30,01,51,11.60
2024,01,30,01,52,11.60
2024,01,30,01,53,11.60
2024,01,30,01,54,11.60
2024,01,30,01,55,11.60
2024,01,30,01,56,11.60
2024,01,30,01,57,11.60
2024,01,30,01,58,11.60
2024,01,30,01,59,11.60
2024,01,30,02,00,11.60
2024,01,30,02,01,11.60
2024,01,30,02,02,11.60
2024,01,30,02,03,11.60
2024,01,30,02,04,11.60
2024,01,30,02,05,11.60
2024,01,30,02,06,11.60
2024,01,30,02,07,11.60
2024,01,30,02,08,11.70
2024,01,30,02,09,11.70
2024,01,30,02,10,11.70
2024,01,30,02,11,11.70
2024,01,30,02,12,11.70
2024,01,30,02,13,11.70
2024,01,30,02,14,11.80
2024,01,30,02,15,11.80
2024,01,30,02,16,11.80
2024,01,30,02,17,11.80
2024,01,30,02,18,11.80
2024,01,30,02,19,11.80
2024,01,30,02,20,11.80
2024,01,30,02,21,11.80
2024,01,30,02,22,11.80
2024,01,30,02,23,11.80
2024,01,30,02,24,11.90
2024,01,30,02,25,11.90
2024,01,30,02,26,11.90
2024,01,30,02,27,11.90
2024,01,30,02,28,11.90
2024,01,30,02,29,11.90
2024,01,30,02,30,11.90
2024,01,30,02,31,11.90
2024,01,30,02,32,11.90
2024,01,30,02,33,11.90
2024,01,30,02,34,11.80
2024,01,30,02,35,11.80
2024,01,30,02,36,11.80
2024,01,30,02,37,11.70
2024,01,30,02,38,11.70
2024,01,30,02,39,11.60
2024,01,30,02,40,11.60
2024,01,30,02,41,11.60
2024,01,30,02,42,11.60
2024,01,30,02,43,11.60
2024,01,30,02,44,11.60
2024,01,30,02,45,11.50
2024,01,30,02,46,11.40
2024,01,30,02,47,11.40
2024,01,30,02,48,11.40
2024,01,30,02,49,11.40
2024,01,30,02,50,11.40
2024,01,30,02,51,11.40
2024,01,30,02,52,11.40
2024,01,30,02,53,11.40
2024,01,30,02,54,11.40
2024,01,30,02,55,11.40
2024,01,30,02,56,11.40
2024,01,30,02,57,11.40
2024,01,30,02,58,11.40
2024,01,30,02,59,11.40
2024,01,30,03,00,11.40
2024,01,30,03,01,11.40
2024,01,30,03,02,11.40
2024,01,30,03,03,11.40
2024,01,30,03,04,11.40
2024,01,30,03,05,11.40
2024,01,30,03,06,11.40
2024,01,30,03,07,11.40
2024,01,30,03,08,11.40
2024,01,30,03,09,11.40
2024,01,30,03,10,11.40
2024,01,30,03,11,11.40
2024,01,30,03,12,11.40
2024,01,30,03,13,11.40
2024,01,30,03,14,11.40
2024,01,30,03,15,11.40
2024,01,30,03,16,11.40
2024,01,30,03,17,11.30
2024,01,30,03,18,11.30
2024,01,30,03,19,11.30
2024,01,30,03,20,11.20
2024,01,30,03,21,11.20
2024,01,30,03,22,11.20
2024,01,30,03,23,11.10
2024,01,30,03,24,11.10
2024,01,30,03,25,11.10
2024,01,30,03,26,11.10
2024,01,30,03,27,11.10
2024,01,30,03,28,11.10
2024,01,30,03,29,11.00
2024,01,30,03,30,10.90
2024,01,30,03,31,10.90
2024,01,30,03,32,10.90
2024,01,30,03,33,10.90
2024,01,30,03,34,10.90
2024,01,30,03,35,10.90
2024,01,30,03,36,10.90
2024,01,30,03,37,10.90
2024,01,30,03,38,10.90
2024,01,30,03,39,10.90
2024,01,30,03,40,10.90
2024,01,30,03,41,10.90
2024,01,30,03,42,10.80
2024,01,30,03,43,10.80
2024,01,30,03,44,10.80
2024,01,30,03,45,10.80
2024,01,30,03,46,10.80
2024,01,30,03,47,10.90
2024,01,30,03,48,10.90
2024,01,30,03,49,10.90
2024,01,30,03,50,10.90
2024,01,30,03,51,10.90
2024,01,30,03,52,10.90
2024,01,30,03,53,10.90
2024,01,30,03,54,10.90
2024,01,30,03,55,10.90
2024,01,30,03,56,10.90
2024,01,30,03,57,10.90
2024,01,30,03,58,10.90
2024,01,30,03,59,10.90
2024,01,30,04,00,10.90
2024,01,30,04,01,10.90
2024,01,30,04,02,10.90
2024,01,30,04,03,10.90
2024,01,30,04,04,10.90
2024,01,30,04,05,10.90
2024,01,30,04,06,10.90
2024,01,30,04,07,10.90
2024,01,30,04,08,10.90
2024,01,30,04,09,10.90
2024,01,30,04,10,10.90
2024,01,30,04,11,10.90
2024,01,30,04,12,10.90
2024,01,30,04,13,10.90
2024,01,30,04,14,10.90
2024,01,30,04,15,10.90
2024,01,30,04,16,10.90
2024,01,30,04,17,10.90
2024,01,30,04,18,10.90
2024,01,30,04,19,10.90
2024,01,30,04,20,10.90
2024,01,30,04,21,10.90
2024,01,30,04,22,10.90
2024,01,30,04,23,10.90
2024,01,30,04,24,10.90
2024,01,30,04,25,10.90
2024,01,30,04,26,10.90
2024,01,30,04,27,10.90
2024,01,30,04,28,10.90
2024,01,30,04,29,10.90
2024,01,30,04,30,10.90
2024,01,30,04,31,10.90
2024,01,30,09,37,10.10
2024,01,30,09,38,10.10
2024,01,30,09,39,10.10
2024,01,30,09,40,10.10
2024,01,30,09,41,10.10
2024,01,30,09,42,10.20
2024,01,30,09,43,10.20
2024,01,30,09,44,10.20
2024,01,30,09,45,10.20
2024,01,30,09,46,10.20
2024,01,30,09,47,10.20
2024,01,30,09,48,10.20
2024,01,30,09,49,10.20
2024,01,30,09,50,10.20
2024,01,30,09,51,10.20
2024,01,30,09,52,10.20
2024,01,30,09,53,10.20
2024,01,30,09,54,10.20
2024,01,30,09,55,10.20
2024,01,30,09,56,10.20
2024,01,30,09,57,10.20
2024,01,30,09,58,10.30
2024,01,30,09,59,10.30
2024,01,30,10,00,10.30
2024,01,30,10,01,10.30
2024,01,30,10,02,10.40
2024,01,30,10,03,10.40
2024,01,30,10,04,10.40
2024,01,30,10,05,10.40
2024,01,30,10,06,10.40
2024,01,30,10,07,10.40
2024,01,30,10,08,10.40
2024,01,30,10,09,10.40
2024,01,30,10,10,10.50
2024,01,30,10,11,10.60
2024,01,30,10,12,10.60
2024,01,30,10,13,10.60
2024,01,30,10,14,10.60
2024,01,30,10,15,10.60
2024,01,30,10,16,10.60
2024,01,30,10,17,10.60
2024,01,30,10,18,10.60
2024,01,30,10,19,10.70
2024,01,30,10,20,10.70
2024,01,30,10,21,10.70
2024,01,30,10,22,10.70
2024,01,30,10,23,10.70
2024,01,30,10,24,10.80
2024,01,30,10,25,10.80
2024,01,30,10,26,10.80
2024,01,30,10,27,10.80
2024,01,30,10,28,10.90
2024,01,30,10,29,10.90
2024,01,30,10,30,10.90
2024,01,30,10,31,10.90
2024,01,30,10,32,10.90
2024,01,30,10,33,10.90
2024,01,30,10,34,10.90
2024,01,30,10,35,10.90
2024,01,30,10,36,10.90
2024,01,30,10,37,10.90
2024,01,30,10,38,10.90
2024,01,30,10,39,11.00
2024,01,30,10,40,11.10
2024,01,30,10,41,11.10
2024,01,30,10,42,11.10
2024,01,30,10,43,11.10
2024,01,30,10,44,11.10
2024,01,30,10,45,11.10
2024,01,30,10,46,11.10
2024,01,30,10,47,11.10
2024,01,30,10,48,11.10
2024,01,30,10,49,11.10
2024,01,30,10,50,11.10
2024,01,30,10,51,11.10
2024,01,30,10,52,11.10
2024,01,30,10,53,11.20
2024,01,30,10,54,11.20
2024,01,30,10,55,11.20
2024,01,30,10,56,11.20
2024,01,30,10,57,11.20
2024,01,30,10,58,11.20
2024,01,30,10,59,11.30
2024,01,30,11,00,11.30
2024,01,30,11,01,11.30
2024,01,30,11,02,11.30
2024,01,30,11,03,11.30
2024,01,30,11,04,11.30
2024,01,30,11,05,11.30
2024,01,30,11,06,11.30
2024,01,30,11,07,11.30
2024,01,30,11,08,11.30
2024,01,30,11,09,11.30
2024,01,30,11,10,11.40
2024,01,30,11,11,11.40
2024,01,30,11,12,11.30
2024,01,30,11,13,11.40
2024,01,30,11,14,11.30
2024,01,30,11,15,11.30
2024,01,30,11,16,11.30
2024,01,30,11,17,11.30
2024,01,30,11,18,11.30
2024,01,30,11,19,11.30
2024,01,30,11,20,11.30
2024,01,30,11,21,11.30
2024,01,30,11,22,11.30
2024,01,30,11,23,11.30
2024,01,30,11,24,11.30
2024,01,30,11,25,11.30
2024,01,30,11,26,11.30
2024,01,30,11,27,11.30
2024,01,30,11,28,11.30
2024,01,30,11,29,11.30
2024,01,30,11,30,11.30
2024,01,30,11,31,11.30
2024,01,30,11,32,11.30
2024,01,30,11,33,11.30
2024,01,30,11,34,11.30
2024,01,30,11,35,11.30
2024,01,30,11,36,11.30
2024,01,30,11,37,11.30
2024,01,30,11,38,11.30
2024,01,30,11,39,11.30
2024,01,30,11,40,11.20
2024,01,30,11,41,11.20
2024,01,30,11,42,11.20
2024,01,30,11,43,11.20
2024,01,30,11,44,11.20
2024,01,30,11,45,11.20
2024,01,30,11,46,11.20
2024,01,30,11,47,11.20
2024,01,30,11,48,11.20
2024,01,30,11,49,11.20
2024,01,30,11,50,11.20
2024,01,30,11,51,11.20
2024,01,30,11,52,11.20
2024,01,30,11,53,11.20
2024,01,30,11,54,11.20
2024,01,30,11,55,11.20
2024,01,30,11,56,11.20
2024,01,30,11,57,11.20
2024,01,30,11,58,11.20
2024,01,30,11,59,11.20
2024,01,30,12,00,11.20
2024,01,30,12,01,11.20
2024,01,30,12,02,11.20
2024,01,30,12,03,11.20
2024,01,30,12,04,11.20
2024,01,30,12,05,11.20
2024,01,30,12,06,11.10
2024,01,30,12,07,11.10
2024,01,30,12,08,11.10
2024,01,30,12,09,11.10
2024,01,30,12,10,11.10
2024,01,30,12,11,11.10
2024,01,30,12,12,11.10
2024,01,30,12,13,11.10
2024,01,30,12,14,11.10
2024,01,30,12,15,11.10
2024,01,30,12,16,11.10
2024,01,30,12,17,11.10
2024,01,30,12,18,11.10
2024,01,30,12,19,11.10
2024,01,30,12,20,11.10
2024,01,30,12,21,11.10
2024,01,30,12,22,11.10
2024,01,30,12,23,11.10
2024,01,30,12,24,11.10
2024,01,30,12,25,11.10
2024,01,30,12,26,11.10
2024,01,30,12,27,11.10
2024,01,30,12,28,11.10
2024,01,30,12,29,11.00
2024,01,30,12,30,10.90
2024,01,30,12,31,10.90
2024,01,30,12,32,10.90
2024,01,30,12,33,10.90
2024,01,30,12,34,10.90
2024,01,30,12,35,10.90
2024,01,30,12,36,10.90
2024,01,30,12,37,10.90
2024,01,30,12,38,10.90
2024,01,30,12,39,10.90
2024,01,30,12,40,10.90
2024,01,30,12,41,10.90
2024,01,30,12,42,10.90
2024,01,30,12,43,10.90
2024,01,30,12,44,10.90
2024,01,30,12,45,10.90
2024,01,30,12,46,10.90
2024,01,30,12,47,10.90
2024,01,30,12,48,10.90
2024,01,30,12,49,10.90
2024,01,30,12,50,10.90
2024,01,30,12,51,10.90
2024,01,30,12,52,10.90
2024,01,30,12,53,10.90
2024,01,30,12,54,10.90
2024,01,30,12,55,10.90
2024,01,30,12,56,10.90
2024,01,30,12,57,10.80
2024,01,30,12,58,10.80
2024,01,30,12,59,10.80
2024,01,30,13,00,10.80
2024,01,30,13,01,10.80
2024,01,30,13,02,10.80
2024,01,30,13,03,10.80
2024,01,30,13,04,10.80
2024,01,30,13,05,10.80
2024,01,30,13,06,10.80
2024,01,30,13,07,10.90
2024,01,30,13,08,10.90
2024,01,30,13,09,10.90
2024,01,30,13,10,10.90
2024,01,30,13,11,10.90
2024,01,30,13,12,10.90
2024,01,30,13,13,10.90
2024,01,30,13,14,10.90
2024,01,30,13,15,10.90
2024,01,30,13,16,10.90
2024,01,30,13,17,10.90
2024,01,30,13,18,10.80
2024,01,30,13,19,10.80
2024,01,30,13,20,10.80
2024,01,30,13,21,10.80
2024,01,30,13,22,10.80
2024,01,30,13,23,10.80
2024,01,30,13,24,10.80
2024,01,30,13,25,10.80
2024,01,30,13,26,10.80
2024,01,30,13,27,10.80
2024,01,30,13,28,10.80
2024,01,30,13,29,10.80
2024,01,30,13,30,10.80
2024,01,30,13,31,10.90
2024,01,30,13,32,10.90
2024,01,30,13,33,10.90
2024,01,30,13,34,10.90
2024,01,30,13,35,10.90
2024,01,30,13,36,10.90
2024,01,30,13,37,10.90
2024,01,30,13,38,10.90
2024,01,30,13,39,10.90
2024,01,30,13,40,10.90
2024,01,30,13,41,11.00
2024,01,30,13,42,11.10
2024,01,30,13,43,11.10
2024,01,30,13,44,11.10
2024,01,30,13,45,11.10
2024,01,30,13,46,11.20
2024,01,30,13,47,11.20
2024,01,30,13,48,11.20
2024,01,30,13,49,11.20
2024,01,30,13,50,11.30
2024,01,30,13,51,11.30
2024,01,30,13,52,11.30
2024,01,30,13,53,11.30
2024,01,30,13,54,11.30
2024,01,30,13,55,11.30
2024,01,30,13,56,11.30
2024,01,30,13,57,11.30
2024,01,30,13,58,11.30
2024,01,30,13,59,11.30
2024,01,30,14,00,11.40
2024,01,30,14,01,11.40
2024,01,30,14,02,11.40
2024,01,30,14,03,11.40
2024,01,30,14,04,11.40
2024,01,30,14,05,11.40
2024,01,30,14,06,11.40
2024,01,30,14,07,11.40
2024,01,30,14,08,11.40
2024,01,30,14,09,11.50
2024,01,30,14,10,11.60
2024,01,30,14,11,11.60
2024,01,30,14,12,11.60
2024,01,30,14,13,11.60
2024,01,30,14,14,11.60
2024,01,30,14,15,11.60
2024,01,30,14,16,11.60
2024,01,30,14,17,11.60
2024,01,30,14,18,11.60
2024,01,30,14,19,11.60
2024,01,30,14,20,11.60
2024,01,30,14,21,11.60
2024,01,30,14,22,11.60
2024,01,30,14,23,11.60
2024,01,30,14,24,11.60
2024,01,30,14,25,11.60
2024,01,30,14,26,11.60
2024,01,30,14,27,11.60
2024,01,30,14,28,11.60
2024,01,30,14,29,11.60
2024,01,30,14,30,11.60
2024,01,30,14,31,11.60
2024,01,30,14,32,11.60
2024,01,30,14,33,11.60
2024,01,30,14,34,11.70
2024,01,30,14,35,11.70
2024,01,30,14,36,11.70
2024,01,30,14,37,11.70
2024,01,30,14,38,11.80
2024,01,30,14,39,11.80
2024,01,30,14,40,11.80
2024,01,30,14,41,11.80
2024,01,30,14,42,11.80
2024,01,30,14,43,11.80
2024,01,30,14,44,11.90
2024,01,30,14,45,11.90
2024,01,30,14,46,12.00
2024,01,30,14,47,12.00
2024,01,30,14,48,12.10
2024,01,30,14,49,12.10
2024,01,30,14,50,12.10
2024,01,30,14,51,12.20
2024,01,30,14,52,12.10
2024,01,30,14,53,12.10
2024,01,30,14,54,12.10
2024,01,30,14,55,12.20
2024,01,30,14,56,12.10
2024,01,30,14,57,12.10
2024,01,30,14,58,12.10
2024,01,30,14,59,12.10
2024,01,30,15,00,12.10
2024,01,30,15,01,12.10
2024,01,30,15,02,12.10
2024,01,30,15,03,12.10
2024,01,30,15,04,12.10
2024,01,30,15,05,12.10
2024,01,30,15,06,12.00
2024,01,30,15,07,12.00
2024,01,30,15,08,11.90
2024,01,30,15,09,11.90
2024,01,30,15,10,11.80
2024,01,30,15,11,11.80
2024,01,30,15,12,11.70
2024,01,30,15,13,11.70
2024,01,30,15,14,11.60
2024,01,30,15,15,11.60
2024,01,30,15,16,11.60
2024,01,30,15,17,11.50
2024,01,30,15,18,11.40
2024,01,30,15,19,11.40
2024,01,30,15,20,11.40
2024,01,30,15,21,11.30
2024,01,30,15,22,11.30
2024,01,30,15,23,11.30
2024,01,30,15,24,11.30
2024,01,30,15,25,11.30
2024,01,30,15,26,11.20
2024,01,30,15,27,11.20
2024,01,30,15,28,11.30
2024,01,30,15,29,11.30
2024,01,30,15,30,11.30
2024,01,30,15,31,11.30
2024,01,30,15,32,11.30
2024,01,30,15,33,11.30
2024,01,30,15,34,11.30
2024,01,30,15,35,11.40
2024,01,30,15,36,11.40
2024,01,30,15,37,11.40
2024,01,30,15,38,11.40
2024,01,30,15,39,11.40
2024,01,30,15,40,11.40
2024,01,30,15,41,11.40
2024,01,30,15,42,11.40
2024,01,30,15,43,11.40
2024,01,30,15,44,11.40
2024,01,30,15,45,11.40
2024,01,30,15,46,11.40
2024,01,30,15,47,11.40
2024,01,30,15,48,11.40
2024,01,30,15,49,11.30
2024,01,30,15,50,11.30
2024,01,30,15,51,11.30
2024,01,30,15,52,11.30
2024,01,30,15,53,11.30
2024,01,30,15,54,11.30
2024,01,30,15,55,11.30
2024,01,30,15,56,11.30
2024,01,30,15,57,11.30
2024,01,30,15,58,11.30
2024,01,30,15,59,11.30
2024,01,30,16,00,11.30
2024,01,30,16,01,11.30
2024,01,30,16,02,11.30
2024,01,30,16,03,11.30
2024,01,30,16,04,11.30
2024,01,30,16,05,11.30
2024,01,30,16,06,11.30
2024,01,30,16,07,11.30
2024,01,30,16,08,11.30
2024,01,30,16,09,11.30
2024,01,30,16,10,11.30
2024,01,30,16,11,11.30
2024,01,30,16,12,11.30
2024,01,30,16,13,11.30
2024,01,30,16,14,11.30
2024,01,30,16,15,11.30
2024,01,30,16,16,11.30
2024,01,30,16,17,11.30
2024,01,30,16,18,11.30
2024,01,30,16,19,11.30
2024,01,30,16,20,11.30
2024,01,30,16,21,11.30
2024,01,30,16,22,11.30
2024,01,30,16,23,11.30
2024,01,30,16,24,11.30
2024,01,30,16,25,11.30
2024,01,30,16,26,11.30
2024,01,30,16,27,11.30
2024,01,30,16,28,11.30
2024,01,30,16,29,11.30
2024,01,30,16,30,11.30
2024,01,30,16,31,11.30
2024,01,30,16,32,11.30
2024,01,30,16,33,11.30
2024,01,30,16,34,11.30
2024,01,30,16,35,11.40
2024,01,30,16,36,11.40
2024,01,30,16,37,11.40
2024,01,30,16,38,11.40
2024,01,30,16,39,11.40
2024,01,30,16,40,11.40
2024,01,30,16,41,11.40
2024,01,30,16,42,11.40
2024,01,30,16,43,11.40
2024,01,30,16,44,11.40
2024,01,30,16,45,11.40
2024,01,30,16,46,11.40
2024,01,30,16,47,11.40
2024,01,30,16,48,11.40
2024,01,30,16,49,11.40
2024,01,30,16,50,11.40
2024,01,30,16,51,11.40
2024,01,30,16,52,11.40
2024,01,30,16,53,11.40
2024,01,30,16,54,11.40
2024,01,30,16,55,11.40
2024,01,30,16,56,11.40
2024,01,30,16,57,11.40
2024,01,30,16,58,11.40
2024,01,30,16,59,11.40
2024,01,30,17,00,11.40
2024,01,30,17,01,11.40
2024,01,30,17,02,11.40
2024,01,30,17,03,11.40
2024,01,30,17,04,11.40
2024,01,30,17,05,11.40
2024,01,30,17,06,11.40
2024,01,30,17,07,11.40
2024,01,30,17,08,11.40
2024,01,30,17,09,11.40
2024,01,30,17,10,11.40
2024,01,30,17,11,11.40
2024,01,30,17,12,11.40
2024,01,30,17,13,11.40
2024,01,30,17,14,11.40
2024,01,30,17,15,11.40
2024,01,30,17,16,11.40
2024,01,30,17,17,11.40
2024,01,30,17,18,11.40
2024,01,30,17,19,11.40
2024,01,30,17,20,11.40
2024,01,30,17,21,11.40
2024,01,30,17,22,11.40
2024,01,30,17,23,11.40
2024,01,30,17,24,11.40
2024,01,30,17,25,11.40
2024,01,30,17,26,11.30
2024,01,30,17,27,11.30
2024,01,30,17,28,11.30
2024,01,30,17,29,11.30
2024,01,30,17,30,11.30
2024,01,30,17,31,11.30
2024,01,30,17,32,11.30
2024,01,30,17,33,11.20
2024,01,30,17,34,11.20
2024,01,30,17,35,11.20
2024,01,30,17,36,11.20
2024,01,30,17,37,11.20
2024,01,30,17,38,11.20
2024,01,30,17,39,11.20
2024,01,30,17,40,11.20
2024,01,30,17,41,11.20
2024,01,30,17,42,11.20
2024,01,30,17,43,11.20
2024,01,30,17,44,11.20
2024,01,30,17,45,11.20
2024,01,30,17,46,11.20
2024,01,30,17,47,11.20
2024,01,30,17,48,11.20
2024,01,30,17,49,11.20
2024,01,30,17,50,11.20
2024,01,30,17,51,11.10
2024,01,30,17,52,11.10
2024,01,30,17,53,11.10
2024,01,30,17,54,11.10
2024,01,30,17,55,11.10
2024,01,30,17,56,11.10
2024,01,30,17,57,11.10
2024,01,30,17,58,11.10
2024,01,30,17,59,11.10
2024,01,30,18,00,11.10
2024,01,30,18,01,11.10
2024,01,30,18,02,11.10
2024,01,30,18,03,11.10
2024,01,30,18,04,11.10
2024,01,30,18,05,11.10
2024,01,30,18,06,11.10
2024,01,30,18,07,11.10
2024,01,30,18,08,11.10
2024,01,30,18,09,11.10
2024,01,30,18,10,11.10
2024,01,30,18,11,11.10
2024,01,30,18,12,11.10
2024,01,30,18,13,11.10
2024,01,30,18,14,11.10
2024,01,30,18,15,11.10
2024,01,30,18,16,11.10
2024,01,30,18,17,11.10
2024,01,30,18,18,11.10
2024,01,30,18,19,11.10
2024,01,30,18,20,11.10
2024,01,30,18,21,11.10
2024,01,30,18,22,11.10
2024,01,30,18,23,11.10
2024,01,30,18,24,11.10
2024,01,30,18,25,11.20
2024,01,30,18,26,11.20
2024,01,30,18,27,11.20
2024,01,30,18,28,11.20
2024,01,30,18,29,11.20
2024,01,30,18,30,11.20
2024,01,30,18,31,11.20
2024,01,30,18,32,11.20
2024,01,30,18,33,11.20
2024,01,30,18,34,11.20
2024,01,30,18,35,11.20
2024,01,30,18,36,11.20
2024,01,30,18,37,11.20
2024,01,30,18,38,11.20
2024,01,30,18,39,11.20
2024,01,30,18,40,11.20
2024,01,30,18,41,11.20
2024,01,30,18,42,11.20
2024,01,30,18,43,11.20
2024,01,30,18,44,11.30
2024,01,30,18,45,11.30
2024,01,30,18,46,11.30
2024,01,30,18,47,11.30
2024,01,30,18,48,11.30
2024,01,30,18,49,11.30
2024,01,30,18,50,11.40
2024,01,30,18,51,11.40
2024,01,30,18,52,11.40
2024,01,30,18,53,11.40
2024,01,30,18,54,11.40
2024,01,30,18,55,11.40
2024,01,30,18,56,11.40
2024,01,30,18,57,11.40
2024,01,30,18,58,11.40
2024,01,30,18,59,11.40
2024,01,30,19,00,11.40
2024,01,30,19,01,11.40
2024,01,30,19,02,11.40
2024,01,30,19,03,11.40
2024,01,30,19,04,11.40
2024,01,30,19,05,11.40
2024,01,30,19,06,11.40
2024,01,30,19,07,11.40
2024,01,30,19,08,11.40
2024,01,30,19,09,11.40
2024,01,30,19,10,11.50
2024,01,30,19,11,11.60
2024,01,30,19,12,11.60
2024,01,30,19,13,11.60
2024,01,30,19,14,11.60
2024,01,30,19,15,11.60
2024,01,30,19,16,11.60
2024,01,30,19,17,11.70
2024,01,30,19,18,11.70
2024,01,30,19,19,11.70
2024,01,30,19,20,11.70
2024,01,30,19,21,11.70
2024,01,30,19,22,11.80
2024,01,30,19,23,11.80
2024,01,30,19,24,11.80
2024,01,30,19,25,11.80
2024,01,30,19,26,11.80
2024,01,30,19,27,11.80
2024,01,30,19,28,11.80
2024,01,30,19,29,11.80
2024,01,30,19,30,11.80
2024,01,30,19,31,11.80
2024,01,30,19,32,11.90
2024,01,30,19,33,11.90
2024,01,30,19,34,11.90
2024,01,30,19,35,11.90
2024,01,30,19,36,11.90
2024,01,30,19,37,11.90
2024,01,30,19,38,11.90
2024,01,30,19,39,12.00
2024,01,30,19,40,12.10
2024,01,30,19,41,12.10
2024,01,30,19,42,12.20
2024,01,30,19,43,12.20
2024,01,30,19,44,12.30
2024,01,30,19,45,12.30
2024,01,30,19,46,12.30
2024,01,30,19,47,12.30
2024,01,30,19,48,12.30
2024,01,30,19,49,12.30
2024,01,30,19,50,12.40
2024,01,30,19,51,12.40
2024,01,30,19,52,12.40
2024,01,30,19,53,12.30
2024,01,30,19,54,12.30
2024,01,30,19,55,12.30
2024,01,30,19,56,12.30
2024,01,30,19,57,12.30
2024,01,30,19,58,12.30
2024,01,30,19,59,12.30
2024,01,30,20,00,12.30
2024,01,30,20,01,12.30
2024,01,30,20,02,12.30
2024,01,30,20,03,12.40
2024,01,30,20,04,12.40
2024,01,30,20,05,12.50
2024,01,30,20,06,12.50
2024,01,30,20,07,12.60
2024,01,30,20,08,12.60
2024,01,30,20,09,12.70
2024,01,30,20,10,12.80
2024,01,30,20,11,12.80
2024,01,30,20,12,12.80
2024,01,30,20,13,12.80
2024,01,30,20,14,12.90
2024,01,30,20,15,12.90
2024,01,30,20,16,12.90
2024,01,30,20,17,13.00
2024,01,30,20,18,13.00
2024,01,30,20,19,13.00
2024,01,30,20,20,13.00
2024,01,30,20,21,13.00
2024,01,30,20,22,13.00
2024,01,30,20,23,13.00
2024,01,30,20,24,13.00
2024,01,30,20,25,13.00
2024,01,30,20,26,12.90
2024,01,30,20,27,12.90
2024,01,30,20,28,12.90
2024,01,30,20,29,12.90
2024,01,30,20,30,12.80
2024,01,30,20,31,12.80
2024,01,30,20,32,12.80
2024,01,30,20,33,12.80
2024,01,30,20,34,12.80
2024,01,30,20,35,12.80
2024,01,30,20,36,12.80
2024,01,30,20,37,12.80
2024,01,30,20,38,12.80
2024,01,30,20,39,12.80
2024,01,30,20,40,12.80
2024,01,30,20,41,12.80
2024,01,30,20,42,12.80
2024,01,30,20,43,12.80
2024,01,30,20,44,12.80
2024,01,30,20,45,12.80
2024,01,30,20,46,12.80
2024,01,30,20,47,12.80
2024,01,30,20,48,12.80
2024,01,30,20,49,12.80
2024,01,30,20,50,12.70
2024,01,30,20,51,12.70
2024,01,30,20,52,12.70
2024,01,30,20,53,12.70
2024,01,30,20,54,12.70
2024,01,30,20,55,12.70
2024,01,30,20,56,12.80
2024,01,30,20,57,12.80
2024,01,30,20,58,12.80
2024,01,30,20,59,12.80
2024,01,30,21,00,12.80
2024,01,30,21,01,12.80
2024,01,30,21,02,12.80
2024,01,30,21,03,12.80
2024,01,30,21,04,12.80
2024,01,30,21,05,12.80
2024,01,30,21,06,12.90
2024,01,30,21,07,12.90
2024,01,30,21,08,12.90
2024,01,30,21,09,12.90
2024,01,30,21,10,13.00
2024,01,30,21,11,13.00
2024,01,30,21,12,13.00
2024,01,30,21,13,13.00
2024,01,30,21,14,13.00
2024,01,30,21,15,13.00
2024,01,30,21,16,13.00
2024,01,30,21,17,13.00
2024,01,30,21,18,13.00
2024,01,30,21,19,13.00
2024,01,30,21,20,13.10
2024,01,30,21,21,13.10
2024,01,30,21,22,13.10
2024,01,30,21,23,13.10
2024,01,30,21,24,13.10
2024,01,30,21,25,13.10
2024,01,30,21,26,13.10
2024,01,30,21,27,13.00
2024,01,30,21,28,13.00
2024,01,30,21,29,13.00
2024,01,30,21,30,13.10
2024,01,30,21,31,13.10
2024,01,30,21,32,13.10
2024,01,30,21,33,13.00
2024,01,30,21,34,13.00
2024,01,30,21,35,13.00
2024,01,30,21,36,13.00
2024,01,30,21,37,13.00
2024,01,30,21,38,13.00
2024,01,30,21,39,13.00
2024,01,30,21,40,13.00
2024,01,30,21,41,12.90
2024,01,30,21,42,12.90
2024,01,30,21,43,13.00
2024,01,30,21,44,13.00
2024,01,30,21,45,13.00
2024,01,30,21,46,13.00
2024,01,30,21,47,13.10
2024,01,30,21,48,13.10
2024,01,30,21,49,13.10
2024,01,30,21,50,13.20
2024,01,30,21,51,13.20
2024,01,30,21,52,13.20
2024,01,30,21,53,13.20
2024,01,30,21,54,13.20
2024,01,30,21,55,13.30
2024,01,30,21,56,13.30
2024,01,30,21,57,13.30
2024,01,30,21,58,13.30
2024,01,30,21,59,13.30
2024,01,30,22,00,13.30
2024,01,30,22,01,13.30
2024,01,30,22,02,13.30
2024,01,30,22,03,13.30
2024,01,30,22,04,13.30
2024,01,30,22,05,13.30
2024,01,30,22,06,13.30
2024,01,30,22,07,13.30
2024,01,30,22,08,13.20
2024,01,30,22,09,13.20
2024,01,30,22,10,13.10
2024,01,30,22,11,13.10
2024,01,30,22,12,13.00
2024,01,30,22,13,13.00
2024,01,30,22,14,12.90
2024,01,30,22,15,12.90
2024,01,30,22,16,12.90
2024,01,30,22,17,12.90
2024,01,30,22,18,12.90
2024,01,30,22,19,12.90
2024,01,30,22,20,12.90
2024,01,30,22,21,13.00
2024,01,30,22,22,13.00
2024,01,30,22,23,13.00
2024,01,30,22,24,13.00